Weather Roundup
Issued by NWS

Home | Current Version | Previous Version | Graphics & Text | Print | Product List | Glossary Off
Versions: 1 2 3 4 5 6 7 8 9 10 11 12 13 14 15 16 17 18 19 20 21 22 23 24 25 26 27 28 29 30 31 32 33 34 35 36 37 38 39 40 41 42 43 44 45 46 47 48 49 50

460
NZUS93 KARX 241159
HRRWXR

CURRENT HOURLY OBSERVATIONS ACROSS
MUCH OF THE UPPER MISSISSIPPI VALLEY
NATIONAL WEATHER SERVICE LA CROSSE WI
600 AM CST SAT FEB 24 2018


...SOUTHEAST MINNESOTA...


CITY           SKY/WX    TMP DP  RH WIND       PRES   REMARKS
ROCHESTER      FOG       11  10  96 NE8       30.13F VSB 1/4 WCI  -1
ROCHESTER/MAYO CLOUDY    13  12  95 CALM      30.14F VSB 1/2
WINONA         FOG       12  10  92 CALM      30.19F VSB 1
AUSTIN         FAIR      10   7  85 CALM      30.11F
ALBERT LEA     FAIR       9   7  92 CALM      30.12F
DODGE CENTER   FOG        7   3  85 CALM      30.12F VSB 1/4
PRESTON        FAIR      12  10  90 CALM      30.14F FOG
OWATONNA       LGT SNOW   3   1  92 CALM      30.13F
FARIBAULT      FAIR       0  -2  92 CALM      30.16F FOG
$$

...ELSEWHERE IN MINNESOTA...


CITY           SKY/WX    TMP DP  RH WIND       PRES   REMARKS
MINNEAPOLIS    FAIR       8   5  87 CALM      30.18F FOG
INTNL FALLS    FAIR      -9 -10  96 SE6       30.10F WCI -22
DULUTH         FAIR       8   3  80 N5        30.13F WCI   0
RED WING       CLOUDY    10   7  85 CALM      30.19F HAZE
REDWOOD FALLS  CLOUDY    -1  -3  91 CALM      30.14S FOG
MANKATO        NOT AVBL
WORTHINGTON    LGT SNOW   9   7  92 E5        30.07F VSB 3/4 WCI   1
FAIRMONT       FOG        9   7  92 NE5       30.12F VSB 1/4 WCI   1
$$

...SOUTHWEST WISCONSIN...


CITY           SKY/WX    TMP DP  RH WIND       PRES   REMARKS
LA CROSSE      FAIR      19  16  88 W5        30.20F FOG     WCI  12
PRAIRIE DU CHI FAIR      24  20  84 CALM      30.17F
BOSCOBEL       FAIR      24  20  84 NE5       30.18F FOG     WCI  18
LONE ROCK      NOT AVBL
PLATTEVILLE    MOCLDY    27  26  98 NE12      30.15F WCI  17
FORT MC COY    FAIR      15  13  95 CALM      30.22S FOG
CAMP DOUGLAS   FAIR      15  14  94 CALM      30.20F
MAUSTON-NEW LI FAIR      20  18  95 CALM      30.20F FOG
VIROQUA        FAIR      22  22 100 E8        30.15F WCI  12
WIS DELLS      FAIR      22  21  94 NE5       30.19F FOG     WCI  16
$$

...ELSEWHERE IN WISCONSIN...


CITY           SKY/WX    TMP DP  RH WIND       PRES   REMARKS
MILWAUKEE      MOCLDY    32  25  75 NE9       30.22F WCI  24
MADISON        FAIR      25  22  88 NE9       30.19F WCI  15
GREEN BAY      CLOUDY    28  23  81 CALM      30.24S
EAU CLAIRE     FOG        9   7  92 CALM      30.20F VSB 1/4
BLACK RVR FLS  FAIR       9   5  84 CALM      30.21F FOG
MEDFORD        FOG        9   6  89 CALM      30.18S VSB 1/2
WAUSAU         FOG       17  15  92 CALM      30.19S VSB 1/4
WIS RAPIDS     FAIR      15  11  83 SE3       30.22S FOG
MARSHFIELD     CLOUDY    14  10  84 NE3       30.18S FOG
RICE LAKE      SNOW       5   3  89 CALM      30.21F VSB<1/4
$$

...NORTHEAST IOWA...


CITY           SKY/WX    TMP DP  RH WIND       PRES   REMARKS
WATERLOO       FAIR      21  20  96 E8        30.13S FOG     WCI  11
DUBUQUE        CLOUDY    26  22  84 E14       30.14R WCI  14
DECORAH        FAIR      19  19 100 NE6       30.13F FOG     WCI  11
MASON CITY     CLOUDY     9   6  88 NE8       30.11F FOG     WCI  -3
CHARLES CITY   MOCLDY    21  21 100 NE10      30.11F FOG     WCI  10
OELWEIN        FAIR      23  23 100 E15       30.10F WCI  10
$$

...ELSEWHERE IN IOWA...


CITY           SKY/WX    TMP DP  RH WIND       PRES   REMARKS
DES MOINES     CLOUDY    25  21  85 NE10      30.07F WCI  15
IOWA CITY      CLOUDY    30  24  78 E9        30.15F WCI  22
FORT DODGE     SNOW      12  10  92 NE8       30.08F VSB 1/2 WCI   0
MARSHALLTOWN   CLOUDY    23  21  92 E13       30.09F FOG     WCI  11
CEDAR RAPIDS   CLOUDY    29  24  82 E12       30.11F HAZE    WCI  19
$$

...NORTHERN ILLINOIS...


CITY           SKY/WX    TMP DP  RH WIND       PRES   REMARKS
CHICAGO-OHARE  CLOUDY    34  28  79 NE12      30.18F WCI  25
CHICAGO-MIDWAY CLOUDY    35  31  85 E17       30.19S WCI  25
MOLINE         CLOUDY    32  27  81 NE9       30.14F WCI  24
ROCKFORD       CLOUDY    30  25  81 E9        30.19F WCI  22
PEORIA         LGT RAIN  33  30  88 E9        30.12S FOG     WCI  25
$$

NOTE: "FAIR" INDICATES FEW OR NO CLOUDS BELOW 12,000 FEET WITH NO
SIGNIFICANT WEATHER AND/OR OBSTRUCTIONS TO VISIBILITY. WIND
SPEEDS ARE IN MILES-PER-HOUR.




USA.gov is the U.S. government's official web portal to all federal, state and local government web resources and services.